Location: Aulagny
(45.1643°N, 4.3096°E)
Time: 04:59:37
(UTC+00:00)

In-Cosmos 22 Rocket - Pass Details

Date: 21 October 2019
Orbit: 790 x 888 km, 81.2° (Epoch: 18 November)

Event Time Altitude Azimuth Distance (km) Brightness Sun altitude
Rises 18:21:29 0° 353° (N) 3,325 7.4 -17.1°
Reaches altitude 10° 18:23:56 10° 359° (N) 2,401 6.6 -17.6°
Maximum altitude 18:29:12 50° 75° (ENE) 1,039 4.3 -18.5°
Enters shadow 18:32:50 20° 143° (SE) 1,828 5.6 -19.1°
